Change the Weather History Date:

Tuesday, April 9, 2013

  Actual Average Record
Temperature  
Mean Temperature 20 °F 44 °F  
Max Temperature 24 °F 57 °F 94 °F (1977)
Min Temperature 15 °F 32 °F 14 °F (1989)
Degree Days  
Heating Degree Days 45 21  
Month to date heating degree days 241 203  
Since 1 July heating degree days 6766 6648  
Cooling Degree Days 0 0  
Month to date cooling degree days 0 0  
Year to date cooling degree days 0 0  
Moisture  
Dew Point 14 °F    
Average Humidity 80    
Maximum Humidity 92    
Minimum Humidity 68    
Precipitation  
Precipitation 0.18 in 0.05 in 0.78 in (1949)
Month to date precipitation 0.26 0.44  
Year to date precipitation 2.07 2.68  
Snow  
Snow 0.00 in 0.20 in 5.80 in (2013)
Month to date snowfall 1.0 1.5  
Since 1 July snowfall 35.7 29.3  
Snow Depth -    
Sea Level Pressure  
Sea Level Pressure 30.26 in    
Wind  
Wind Speed 21 mph (North)    
Max Wind Speed 56 mph    
Max Gust Speed 63 mph    
Visibility 3 miles    
Events Fog , Snow    
T = Trace of Precipitation, MM = Missing Value Source: NWS Daily Summary

Daily Weather History Graph

Daily Weather History Graph

Search for Another Location

Airport or City:

Trip Planner

Search our weather history database for the weather conditions in past years. The results will help you decide how hot, cold, wet, or windy it might be!

Date:

Astronomy

Apr. 09, 2013 Rise Set
Actual Time 7:07 AM CDT 8:18 PM CDT
Civil Twilight 6:37 AM CDT 8:48 PM CDT
Nautical Twilight 6:01 AM CDT 9:24 PM CDT
Astronomical Twilight 5:23 AM CDT 10:02 PM CDT
Moon 6:31 AM CDT (4/9) 7:56 PM CDT (4/9)
Length of Visible Light 14h 11m
Length of Day
13h 11m
Waning Crescent, 1% of the Moon is Illuminated
Apr 9
Waning Crescent
Apr 10
New
Apr 18
First Quarter
Apr 25
Full
May 2
Last Quarter

Hourly Weather History & Observations

Time (CDT) Temp. Windchill Dew Point Humidity Pressure Visibility Wind Dir Wind Speed Gust Speed Precip Events Conditions
12:02 AM 19.4 °F 3.2 °F 17.6 °F 93% 30.14 in 0.8 mi North 20.7 mph 25.3 mph 0.01 in Snow Light Snow
12:46 AM 19.4 °F 1.8 °F 15.8 °F 86% 30.11 in 1.0 mi North 25.3 mph 32.2 mph 0.03 in   Mist
12:53 AM 19.0 °F 2.4 °F 16.0 °F 88% 30.18 in 1.2 mi North 21.9 mph 33.4 mph 0.03 in   Overcast
1:28 AM 17.6 °F -0.6 °F 15.8 °F 93% 30.12 in 0.8 mi North 25.3 mph 31.1 mph 0.01 in   Mist
1:44 AM 17.6 °F 0.1 °F 15.8 °F 93% 30.13 in 0.5 mi North 23.0 mph 28.8 mph 0.01 in Fog Light Freezing Fog
1:53 AM 18.0 °F 0.9 °F 15.1 °F 88% 30.21 in 0.5 mi North 21.9 mph 29.9 mph 0.02 in Fog Light Freezing Fog
2:53 AM 17.1 °F -2.0 °F 14.0 °F 88% 30.19 in 0.5 mi North 27.6 mph 34.5 mph 0.02 in Fog Light Freezing Fog
3:53 AM 17.1 °F -3.0 °F 14.0 °F 88% 30.19 in 0.8 mi North 31.1 mph 34.5 mph 0.02 in   Mist
4:05 AM 15.8 °F -3.7 °F 12.2 °F 86% 30.13 in 0.8 mi North 27.6 mph 39.1 mph N/A   Mist
4:15 AM 17.6 °F -0.3 °F 12.2 °F 79% 30.14 in 1.0 mi North 24.2 mph 32.2 mph N/A   Mist
4:31 AM 17.6 °F 0.1 °F 12.2 °F 79% 30.15 in 1.2 mi North 23.0 mph - N/A   Overcast
4:49 AM 15.8 °F -1.9 °F 12.2 °F 86% 30.16 in 1.5 mi North 21.9 mph 29.9 mph N/A   Overcast
4:53 AM 16.0 °F -2.1 °F 12.9 °F 88% 30.24 in 1.5 mi North 23.0 mph 29.9 mph N/A   Overcast
5:01 AM 15.8 °F -0.6 °F 12.2 °F 86% 30.17 in 1.2 mi North 18.4 mph - N/A   Overcast
5:19 AM 15.8 °F -0.2 °F 12.2 °F 86% 30.19 in 0.8 mi North 17.3 mph - N/A   Mist
5:38 AM 15.8 °F 0.9 °F 14.0 °F 93% 30.21 in 0.5 mi North 15.0 mph - 0.01 in Fog Light Freezing Fog
5:53 AM 16.0 °F 0.1 °F 12.9 °F 88% 30.29 in 0.5 mi North 17.3 mph - 0.02 in Fog Light Freezing Fog
6:53 AM 16.0 °F -2.5 °F 12.9 °F 88% 30.30 in 0.5 mi North 24.2 mph 32.2 mph 0.02 in Fog Light Freezing Fog
7:31 AM 15.8 °F -4.1 °F 12.2 °F 86% 30.25 in 0.2 mi North 28.8 mph - 0.02 in Fog Light Freezing Fog
7:53 AM 15.1 °F -3.7 °F 12.9 °F 91% 30.32 in 0.2 mi North 24.2 mph 33.4 mph 0.02 in Fog Light Freezing Fog
8:53 AM 16.0 °F -3.2 °F 12.9 °F 88% 30.34 in 0.5 mi North 26.5 mph 31.1 mph 0.01 in Fog Light Freezing Fog
9:08 AM 15.8 °F -2.7 °F 12.2 °F 86% 30.27 in 0.5 mi North 24.2 mph 29.9 mph N/A Fog Light Freezing Fog
9:49 AM 15.8 °F -2.7 °F 12.2 °F 86% 30.25 in 0.2 mi North 24.2 mph 36.8 mph 0.01 in Fog , Snow Snow
9:53 AM 16.0 °F -3.5 °F 12.9 °F 88% 30.35 in 0.2 mi North 27.6 mph 34.5 mph 0.01 in Fog , Snow Snow
10:43 AM 15.8 °F -3.7 °F 12.2 °F 86% 30.27 in 0.2 mi North 27.6 mph 33.4 mph 0.01 in Fog , Snow Snow
10:51 AM 15.8 °F -3.4 °F 12.2 °F 86% 30.28 in 0.5 mi North 26.5 mph 33.4 mph 0.01 in Fog , Snow Snow
10:53 AM 16.0 °F -2.8 °F 12.9 °F 88% 30.36 in 0.5 mi North 25.3 mph 32.2 mph 0.01 in Fog , Snow Snow
11:11 AM 17.6 °F -0.3 °F 12.2 °F 79% 30.28 in 1.0 mi North 24.2 mph 33.4 mph 0.00 in Snow Light Snow
11:36 AM 17.6 °F 0.5 °F 12.2 °F 79% 30.28 in 3.0 mi North 21.9 mph 29.9 mph 0.00 in   Overcast
11:53 AM 18.0 °F 0.6 °F 12.0 °F 78% 30.37 in 5.0 mi North 23.0 mph - 0.00 in   Haze
12:38 PM 19.4 °F 0.8 °F 12.2 °F 74% 30.28 in 2.5 mi North 28.8 mph 35.7 mph 0.00 in   Overcast
12:46 PM 19.4 °F 2.8 °F 12.2 °F 74% 30.28 in 3.0 mi North 21.9 mph 34.5 mph 0.00 in   Overcast
12:53 PM 19.0 °F 2.0 °F 12.9 °F 77% 30.37 in 4.0 mi North 23.0 mph 31.1 mph 0.00 in   Overcast
1:53 PM 19.9 °F 3.5 °F 12.9 °F 74% 30.37 in 9.0 mi North 21.9 mph - 0.00 in   Overcast
2:53 PM 21.0 °F 3.3 °F 14.0 °F 74% 30.34 in 4.0 mi North 27.6 mph 33.4 mph N/A   Haze
3:06 PM 19.4 °F 1.8 °F 14.0 °F 80% 30.24 in 2.5 mi North 25.3 mph 35.7 mph N/A Snow Blowing Snow
3:14 PM 21.2 °F 3.9 °F 14.0 °F 74% 30.24 in 3.0 mi North 26.5 mph 35.7 mph N/A   Haze
3:53 PM 21.0 °F 5.0 °F 14.0 °F 74% 30.35 in 7.0 mi North 21.9 mph 33.4 mph N/A   Overcast
4:53 PM 23.0 °F 8.7 °F 15.1 °F 72% 30.33 in 10.0 mi North 18.4 mph 27.6 mph N/A   Overcast
5:53 PM 23.0 °F 8.0 °F 16.0 °F 74% 30.31 in 10.0 mi North 20.7 mph - N/A   Overcast
6:53 PM 24.1 °F 10.6 °F 16.0 °F 71% 30.31 in 10.0 mi North 17.3 mph - N/A   Overcast
7:53 PM 24.1 °F 13.1 °F 16.0 °F 71% 30.35 in 10.0 mi North 11.5 mph - N/A   Overcast
8:53 PM 24.1 °F 11.5 °F 17.1 °F 75% 30.33 in 10.0 mi North 15.0 mph - N/A   Overcast
9:53 PM 24.1 °F 12.0 °F 17.1 °F 75% 30.35 in 10.0 mi North 13.8 mph - N/A   Overcast
10:53 PM 24.1 °F 12.0 °F 16.0 °F 71% 30.38 in 10.0 mi North 13.8 mph - N/A   Overcast
11:53 PM 23.0 °F 11.7 °F 16.0 °F 74% 30.39 in 6.0 mi North 11.5 mph - 0.00 in Snow Light Snow